Weather Roundup
Issued by NWS

Home | Current Version | Previous Version | Text Only | Print | Product List | Glossary On
Versions: 1 2 3 4 5 6 7 8 9 10 11 12 13 14 15 16 17 18 19 20 21 22 23 24 25 26 27 28 29 30 31 32 33 34 35 36 37 38 39 40 41 42 43 44 45 46 47 48 49 50
074
NZUS93 KARX 070410
HRRWXR

CURRENT HOURLY OBSERVATIONS ACROSS
MUCH OF THE UPPER MISSISSIPPI VALLEY
NATIONAL WEATHER SERVICE LA CROSSE WI
1000 PM CST SAT FEB 06 2016


...SOUTHEAST MINNESOTA...


CITY           SKY/WX    TMP DP  RH WIND       PRES   REMARKS
ROCHESTER      CLOUDY    31  27  85 S20       29.86F WCI  19
ROCHESTER/MAYO CLOUDY    32  29  87 S22G29    29.85F WCI  19
WINONA         CLOUDY    34  30  86 SW9       29.91F WCI  26
AUSTIN         CLOUDY    30  28  93 S15       29.86F WCI  19
ALBERT LEA     CLOUDY    34  27  75 S14G20    29.83F WCI  24
DODGE CENTER   CLOUDY    30  28  93 SW18      29.83F WCI  18
PRESTON        CLOUDY    29  27  91 S16G23    29.89F WCI  18
OWATONNA       CLOUDY    34  27  75 S18       29.83F WCI  23
FARIBAULT      CLOUDY    34  28  80 S12G17    29.83F WCI  25
$$

...ELSEWHERE IN MINNESOTA...


CITY           SKY/WX    TMP DP  RH WIND       PRES   REMARKS
MINNEAPOLIS    CLOUDY    35  28  75 SW10      29.80F WCI  27
INTNL FALLS    LGT SNOW  32  29  88 SE9       29.51F FOG     WCI  24
DULUTH         FLURRIES  31  27  85 SW13      29.64F WCI  21
RED WING       MIX PCPN  34  27  75 SW5       29.84F WCI  30
REDWOOD FALLS  CLOUDY    35  29  78 S10       29.74F WCI  27
MANKATO        CLOUDY    34  27  75 S9        29.82F WCI  26
WORTHINGTON    CLOUDY    30  25  80 SW16      29.83F WCI  19
FAIRMONT       CLOUDY    34  25  69 SW15      29.82F WCI  24
$$

...SOUTHWEST WISCONSIN...


CITY           SKY/WX    TMP DP  RH WIND       PRES   REMARKS
LA CROSSE      CLOUDY    31  25  78 S10       29.92F WCI  22
PRAIRIE DU CHI CLOUDY    32  28  83 S5        29.98F WCI  28
BOSCOBEL       CLOUDY    33  30  88 SW5       29.99F WCI  29
LONE ROCK      CLOUDY    31  26  82 SE5       29.99F WCI  26
PLATTEVILLE    CLOUDY    30  29  95 S10       30.00F WCI  21
FORT MC COY    CLOUDY    31  26  83 S8        29.93F WCI  23
CAMP DOUGLAS   PTCLDY    30  30  99 VRB2      29.92F
VIROQUA        CLOUDY    30  27  88 S13       29.93F WCI  20
WIS DELLS      CLOUDY    30  26  86 SW12      29.96F WCI  21
$$

...ELSEWHERE IN WISCONSIN...


CITY           SKY/WX    TMP DP  RH WIND       PRES   REMARKS
MILWAUKEE      CLOUDY    32  27  81 SW10      30.03F WCI  24
MADISON        CLOUDY    30  25  81 S7        30.00F WCI  23
GREEN BAY      CLOUDY    29  25  85 S12       29.97F WCI  19
EAU CLAIRE     CLOUDY    31  24  75 S15       29.85F WCI  20
BLACK RVR FLS  CLOUDY    31  25  76 S3        29.91F
MEDFORD        CLOUDY    28  24  83 S13       29.84F WCI  18
WAUSAU         CLOUDY    31  24  75 S13       29.87F WCI  21
WIS RAPIDS     CLOUDY    30  23  75 SW10      29.93F WCI  21
MARSHFIELD     CLOUDY    30  22  72 S13       29.86F WCI  20
RICE LAKE      LGT SNOW  31  27  84 S10       29.81F WCI  22
$$

...NORTHEAST IOWA...


CITY           SKY/WX    TMP DP  RH WIND       PRES   REMARKS
WATERLOO       CLOUDY    33  29  85 S14       29.94F WCI  23
DUBUQUE        CLOUDY    31  28  89 S13       30.00F WCI  21
DECORAH        CLOUDY    30  30 100 S12G18    29.91F WCI  21
MASON CITY     CLOUDY    32  29  88 S12       29.89F WCI  23
CHARLES CITY   CLOUDY    32  32 100 S16       29.91F WCI  21
OELWEIN        CLOUDY    30  30 100 S15       29.95F WCI  19
$$

...ELSEWHERE IN IOWA...


CITY           SKY/WX    TMP DP  RH WIND       PRES   REMARKS
DES MOINES     CLOUDY    39  28  64 SW13      29.97F WCI  31
IOWA CITY      CLOUDY    32  30  92 S3        30.05F
FORT DODGE     CLOUDY    36  27  69 SW12G18   29.90F WCI  27
MARSHALLTOWN   CLOUDY    36  29  75 S20G28    29.94F WCI  25
CEDAR RAPIDS   CLOUDY    33  31  92 S9        30.00F WCI  25
$$

...NORTHERN ILLINOIS...


CITY           SKY/WX    TMP DP  RH WIND       PRES   REMARKS
CHICAGO-OHARE  PTCLDY    33  28  81 S8        30.07F WCI  26
CHICAGO-MIDWAY CLEAR     35  27  72 S7        30.09F WCI  29
MOLINE         PTCLDY    35  28  75 S7        30.06F WCI  29
ROCKFORD       CLOUDY    30  27  88 S5        30.07F WCI  25
PEORIA         CLEAR     34  25  69 S5        30.11F WCI  30
$$

NOTE: "FAIR" INDICATES FEW OR NO CLOUDS BELOW 12,000 FEET WITH NO
SIGNIFICANT WEATHER AND/OR OBSTRUCTIONS TO VISIBILITY. WIND
SPEEDS ARE IN MILES-PER-HOUR.




USA.gov is the U.S. government's official web portal to all federal, state and local government web resources and services.